Waarnemingen

Advertentie
Mijn weer
Europlatform, Nederland (6321): temperatuur & dauwpunt: 14.01.2019 12:00:00 - 20.01.2019 12:00:00 (CET)Europlatform, Nederland (6321): water temperatuur: 14.01.2019 12:00:00 - 20.01.2019 12:00:00 (CET)Europlatform, Nederland (6321): windsnelheid & windstoten: 14.01.2019 12:00:00 - 20.01.2019 12:00:00 (CET)Europlatform, Nederland (6321): windrichting: 14.01.2019 12:00:00 - 20.01.2019 12:00:00 (CET)Europlatform, Nederland (6321): luchtdruk: 14.01.2019 12:00:00 - 20.01.2019 12:00:00 (CET)Europlatform, Nederland (6321): zicht: 14.01.2019 12:00:00 - 20.01.2019 12:00:00 (CET)
Datum & Tijd tt [°C] td [°C] tw [°C] ff [km/u] ff [kn] fx [km/u] fx [kn] dd ppp [hPa] vv [km]
20.01.2019 12:00:00 1,8 -3,1 5,6 22 12 25 14 O 1018,2 10
20.01.2019 11:00:00 1,2 -2,3 5,6 21 11 25 14 O 1017,5 10
20.01.2019 10:00:00 1,4 -3,0 5,7 21 11 25 14 O 1016,7 10
20.01.2019 09:00:00 1,5 -1,9 5,7 18 10 22 12 O 1015,9 10
20.01.2019 08:00:00 1,9 -2,2 5,7 16 9 22 12 O 1015,1 10
20.01.2019 07:00:00 1,9 -1,9 5,7 15 8 22 12 O 1014,5 10
20.01.2019 06:00:00 2,1 -1,8 5,7 21 11 22 12 O 1014,0 10
20.01.2019 05:00:00 2,2 -1,9 5,7 21 11 25 14 O 1013,8 10
20.01.2019 04:00:00 2,2 -2,2 5,7 21 11 25 14 OZO 1013,7 10
20.01.2019 03:00:00 2,5 -2,0 5,7 22 12 25 14 OZO 1013,5 10
20.01.2019 02:00:00 2,7 -1,6 5,6 22 12 25 14 OZO 1013,2 10
20.01.2019 01:00:00 2,8 -1,5 5,7 24 13 29 16 OZO 1013,3 10
20.01.2019 00:00:00 2,9 -1,1 5,7 26 14 29 16 OZO 1013,2 10
19.01.2019 23:00:00 3,6 -2,5 5,7 28 15 36 19 OZO 1012,9 10
19.01.2019 22:00:00 3,5 -2,0 5,7 29 16 36 19 OZO 1012,6 10
19.01.2019 21:00:00 3,2 -1,9 - 34 18 40 21 OZO 1012,4 10
19.01.2019 20:00:00 3,1 -2,0 5,7 34 18 36 19 OZO 1012,4 10
19.01.2019 19:00:00 3,0 -1,9 5,7 31 17 36 19 OZO 1012,4 10
19.01.2019 18:00:00 3,1 -1,8 5,7 29 16 36 19 OZO 1012,4 10
19.01.2019 17:00:00 3,2 -2,2 5,7 31 17 32 18 OZO 1012,2 10
19.01.2019 16:00:00 3,1 -1,6 5,8 31 17 36 19 OZO 1012,1 10
19.01.2019 15:00:00 3,3 -2,2 5,7 31 17 36 19 ZO 1012,4 10
19.01.2019 14:00:00 3,6 -0,9 5,7 34 18 40 21 ZO 1013,0 10
19.01.2019 13:00:00 3,1 -1,8 5,7 37 20 40 21 ZO 1013,6 10
19.01.2019 12:00:00 2,7 -1,0 5,7 37 20 40 21 ZO 1014,1 10
19.01.2019 11:00:00 2,5 -1,4 5,7 37 20 43 23 ZO 1014,3 10
19.01.2019 10:00:00 2,6 -1,0 5,7 35 19 40 21 ZO 1014,4 10
19.01.2019 09:00:00 2,4 -1,2 5,8 37 20 43 23 ZO 1014,4 10
19.01.2019 08:00:00 2,5 -2,0 5,7 39 21 43 23 ZZO 1014,4 10
19.01.2019 07:00:00 2,4 -1,5 5,8 39 21 47 25 ZZO 1014,6 10
19.01.2019 06:00:00 2,1 -0,8 5,8 39 21 47 25 ZZO 1015,0 10
19.01.2019 05:00:00 2,1 -1,3 5,8 41 22 47 25 ZZO 1015,2 10
19.01.2019 04:00:00 2,5 -0,9 5,8 37 20 40 21 ZZO 1015,8 10
19.01.2019 03:00:00 2,8 -1,0 5,8 41 22 43 23 ZZO 1016,3 10
19.01.2019 02:00:00 3,0 -0,9 5,8 39 21 43 23 ZZO 1016,4 10
19.01.2019 01:00:00 3,3 0,9 5,8 37 20 40 21 ZZO 1016,8 10
19.01.2019 00:00:00 3,6 -0,5 5,8 35 19 36 19 ZZO 1017,1 10
18.01.2019 23:00:00 3,6 0,1 5,8 34 18 36 19 ZZO 1017,3 10
18.01.2019 22:00:00 3,9 1,0 5,8 35 19 36 19 ZZO 1017,6 10
18.01.2019 21:00:00 4,5 1,1 5,8 34 18 36 19 ZZO 1017,6 10
18.01.2019 20:00:00 5,1 0,8 5,8 34 18 36 19 ZZO 1017,6 10
18.01.2019 19:00:00 5,2 2,5 5,8 29 16 32 18 ZZO 1017,7 10
18.01.2019 18:00:00 5,1 2,9 5,8 26 14 29 16 ZO 1017,8 10
18.01.2019 17:00:00 5,4 2,1 5,8 22 12 25 14 ZZO 1018,1 10
18.01.2019 16:00:00 5,4 2,8 5,9 26 14 29 16 ZZO 1018,2 10
18.01.2019 15:00:00 5,8 2,0 5,8 24 13 29 16 ZZO 1018,5 10
18.01.2019 14:00:00 6,1 1,8 - 26 14 29 16 ZZO 1018,7 10
18.01.2019 13:00:00 6,2 0,2 5,8 24 13 25 14 ZZO 1019,1 10
18.01.2019 12:00:00 6,2 -1,3 5,8 22 12 25 14 ZZO 1019,4 10
18.01.2019 11:00:00 6,3 -1,6 5,8 16 9 18 10 ZZO 1019,3 10
18.01.2019 10:00:00 6,4 -2,0 5,8 11 6 14 8 ZO 1019,0 10
18.01.2019 09:00:00 6,4 -3,1 5,8 8 4 7 4 ZO 1018,7 10
18.01.2019 08:00:00 6,3 -2,9 5,9 2 1 7 4 - 1018,3 10
18.01.2019 07:00:00 6,2 -4,0 5,8 4 2 14 8 - 1018,1 10
18.01.2019 06:00:00 6,4 -3,3 5,9 9 5 11 6 NNO 1017,9 10
18.01.2019 05:00:00 6,4 -3,0 5,9 11 6 18 10 N 1017,7 10
18.01.2019 04:00:00 6,5 -4,2 5,9 21 11 29 16 N 1017,4 10
18.01.2019 03:00:00 6,8 -1,5 5,9 24 13 32 18 NNW 1016,9 10
18.01.2019 02:00:00 6,9 -4,0 6,0 29 16 40 21 N 1016,5 10
18.01.2019 01:00:00 7,0 -2,1 5,9 31 17 43 23 NNW 1015,9 10
18.01.2019 00:00:00 6,8 -1,8 5,9 31 17 47 25 NNW 1015,2 10
17.01.2019 23:00:00 6,2 0,1 5,9 41 22 50 27 NNW 1014,6 10
17.01.2019 22:00:00 6,4 1,6 5,9 42 23 54 29 NNW 1013,7 10
17.01.2019 21:00:00 5,2 1,4 6,0 44 24 65 35 NW 1012,8 10
17.01.2019 20:00:00 6,3 1,1 6,0 55 30 65 35 NW 1011,6 10
17.01.2019 19:00:00 6,4 0,8 6,0 48 26 72 39 NW 1010,7 10
17.01.2019 18:00:00 6,4 -1,0 6,0 55 30 65 35 NNW 1009,6 10
17.01.2019 17:00:00 6,0 -1,3 6,1 65 35 68 37 NW 1008,3 10
17.01.2019 16:00:00 5,0 1,1 6,1 70 38 79 43 NNW 1006,8 10
17.01.2019 15:00:00 4,4 1,5 6,1 68 37 79 43 W 1005,9 10
17.01.2019 14:00:00 4,7 0,6 6,1 59 32 72 39 WNW 1005,8 10
17.01.2019 13:00:00 5,0 0,5 6,1 59 32 72 39 WNW 1005,2 10
17.01.2019 12:00:00 4,2 1,5 6,1 54 29 61 33 NW 1004,7 6
17.01.2019 11:00:00 3,5 1,0 6,1 61 33 72 39 NW 1004,2 10
17.01.2019 10:00:00 5,0 1,7 - 54 29 65 35 NW 1002,8 8
17.01.2019 09:00:00 6,1 2,8 6,1 42 23 50 27 WNW 1001,8 10
17.01.2019 08:00:00 5,9 2,2 6,1 41 22 47 25 WNW 1001,1 10
17.01.2019 07:00:00 6,4 2,9 6,1 39 21 43 23 W 1000,9 10
17.01.2019 06:00:00 7,1 3,4 6,1 37 20 40 21 W 1000,8 10
17.01.2019 05:00:00 7,2 3,3 6,1 35 19 40 21 WZW 1001,2 10
17.01.2019 04:00:00 7,1 3,2 6,1 37 20 40 21 WZW 1001,6 10
17.01.2019 03:00:00 7,1 2,7 6,1 39 21 43 23 WZW 1001,8 10
17.01.2019 02:00:00 6,8 3,0 6,1 39 21 43 23 WZW 1002,0 10
17.01.2019 01:00:00 6,9 3,9 6,1 37 20 43 23 WZW 1002,1 10
17.01.2019 00:00:00 6,8 3,7 6,1 41 22 40 21 WZW 1001,8 10
16.01.2019 23:00:00 6,6 3,6 6,1 26 14 32 18 W 1001,6 10
16.01.2019 22:00:00 5,9 4,0 6,1 21 11 47 25 NW 1001,3 8
16.01.2019 21:00:00 5,9 4,2 6,1 50 27 68 37 NW 1000,6 10
16.01.2019 20:00:00 7,4 6,0 6,1 61 33 65 35 ZZW 1000,1 9
16.01.2019 19:00:00 7,0 5,6 6,1 50 27 65 35 ZZW 1000,8 7
16.01.2019 18:00:00 7,1 5,2 6,1 55 30 61 33 Z 1001,6 9
16.01.2019 17:00:00 7,0 5,0 6,1 54 29 61 33 Z 1002,4 6
16.01.2019 16:00:00 7,0 5,1 6,1 52 28 58 31 ZZW 1003,2 7
16.01.2019 15:00:00 6,8 5,1 6,1 54 29 61 33 ZZW 1004,0 7
16.01.2019 14:00:00 6,7 4,8 6,1 57 31 65 35 ZZW 1005,0 8
16.01.2019 13:00:00 6,7 5,0 6,1 61 33 68 37 ZZW 1006,0 8
16.01.2019 12:00:00 6,9 5,2 6,1 63 34 65 35 ZZW 1007,0 10
16.01.2019 11:00:00 7,0 5,4 6,1 54 29 61 33 ZZW 1007,7 9
16.01.2019 10:00:00 7,3 5,9 6,1 55 30 58 31 ZZW 1008,5 5
16.01.2019 09:00:00 7,1 6,1 6,1 54 29 58 31 ZZW 1008,7 8
16.01.2019 08:00:00 7,5 6,6 6,1 52 28 58 31 ZZW 1008,8 8
16.01.2019 07:00:00 7,9 6,9 6,1 44 24 54 29 ZZW 1009,3 10
16.01.2019 06:00:00 8,6 7,1 6,1 46 25 58 31 ZZW 1010,1 10
16.01.2019 05:00:00 8,7 7,2 6,1 44 24 54 29 ZZW 1010,7 10
16.01.2019 04:00:00 8,9 6,4 6,1 41 22 50 27 ZW 1011,6 10
16.01.2019 03:00:00 9,0 5,7 6,1 41 22 54 29 ZW 1012,4 10
16.01.2019 02:00:00 9,1 5,5 6,1 52 28 54 29 ZW 1012,9 10
16.01.2019 01:00:00 9,1 5,8 6,1 50 27 54 29 ZW 1013,4 10
16.01.2019 00:00:00 9,1 6,1 6,1 46 25 50 27 ZW 1013,8 10
15.01.2019 23:00:00 9,1 6,3 6,1 44 24 50 27 ZW 1014,3 10
15.01.2019 22:00:00 9,1 6,4 6,1 48 26 54 29 ZW 1015,0 10
15.01.2019 21:00:00 8,9 6,3 6,0 46 25 50 27 ZW 1015,1 10
15.01.2019 20:00:00 8,8 6,3 6,0 48 26 50 27 ZW 1015,6 10
15.01.2019 19:00:00 8,8 6,4 6,0 41 22 50 27 ZW 1015,8 10
15.01.2019 18:00:00 8,5 6,1 6,0 44 24 50 27 ZW 1016,3 10
15.01.2019 17:00:00 8,6 5,6 6,0 44 24 50 27 WZW 1016,6 10
15.01.2019 16:00:00 8,7 5,4 6,1 44 24 50 27 WZW 1016,7 10
15.01.2019 15:00:00 8,6 5,2 6,1 44 24 50 27 WZW 1016,7 10
15.01.2019 14:00:00 8,4 5,3 6,1 46 25 50 27 WZW 1017,1 10
15.01.2019 13:00:00 8,4 5,2 6,1 44 24 50 27 WZW 1017,5 10
15.01.2019 12:00:00 8,1 5,2 6,1 42 23 47 25 WZW 1018,1 10
15.01.2019 11:00:00 7,8 5,2 6,1 48 26 50 27 WZW 1018,3 10
15.01.2019 10:00:00 7,6 4,5 6,1 48 26 50 27 WZW 1018,5 10
15.01.2019 09:00:00 7,7 4,3 6,0 48 26 50 27 WZW 1018,7 10
15.01.2019 08:00:00 7,5 4,7 6,0 41 22 43 23 WZW 1018,9 10
15.01.2019 07:00:00 7,5 3,9 6,0 37 20 40 21 WZW 1019,0 10
15.01.2019 06:00:00 7,9 4,2 6,1 37 20 43 23 WZW 1019,3 10
15.01.2019 05:00:00 7,7 4,3 6,1 37 20 40 21 W 1019,4 10
15.01.2019 04:00:00 7,5 4,8 6,1 37 20 40 21 W 1019,9 10
15.01.2019 03:00:00 7,5 4,7 6,1 35 19 36 19 W 1020,3 10
15.01.2019 02:00:00 7,7 4,1 6,1 31 17 36 19 WZW 1020,5 10
15.01.2019 01:00:00 7,2 3,9 6,1 29 16 29 16 WZW 1020,7 10
15.01.2019 00:00:00 6,7 2,8 6,1 26 14 29 16 W 1021,0 10
14.01.2019 23:00:00 6,6 2,6 6,1 22 12 25 14 W 1021,2 10
14.01.2019 22:00:00 6,4 2,8 6,1 24 13 29 16 W 1021,2 10
14.01.2019 21:00:00 6,1 2,7 6,1 21 11 32 18 WNW 1021,2 10
14.01.2019 20:00:00 6,1 2,8 6,1 26 14 32 18 NW 1021,1 10
14.01.2019 19:00:00 6,1 3,0 6,1 28 15 32 18 NW 1020,9 10
14.01.2019 18:00:00 6,0 2,2 6,1 34 18 36 19 NW 1020,6 10
14.01.2019 17:00:00 6,6 2,3 6,1 34 18 40 21 NW 1020,0 10
14.01.2019 16:00:00 6,0 1,6 6,1 34 18 47 25 NW 1019,6 10
14.01.2019 15:00:00 6,6 2,1 6,1 39 21 54 29 NW 1019,0 10
14.01.2019 14:00:00 7,4 1,2 6,1 41 22 47 25 NW 1018,5 10
14.01.2019 13:00:00 7,2 2,5 6,1 37 20 43 23 NW 1017,8 10
14.01.2019 12:00:00 6,9 2,9 6,1 39 21 43 23 NW 1017,4 10

tt = temperatuur
td = dauwpunt
tw = water temperatuur
ff = windsnelheid
fx = windstoten
dd = windrichting
ppp = luchtdruk
vv = zicht

Weerstations in de omgeving